This is the latest recevied weather packets stored in our database for station/object N9MXT-13. If no packets are shown the sender has not sent any weather packets the latest 10 day(s).
| Time | Temp. | Humidity | Pressure | Rain* | Wind** | Luminosity | Snow |
|---|---|---|---|---|---|---|---|
| 1777997099 | 11.11° C | 43% | 1009 hPa | 0 mm | - | - | - |
| 1777995600 | 10.56° C | 45% | 1008.8 hPa | 0 mm | - | - | - |
| 1777990499 | 10° C | 55% | 1009 hPa | 0 mm | - | - | - |
| 1777987498 | 9.44° C | 52% | 1009.1 hPa | 0 mm | - | - | - |
| 1777985699 | 8.89° C | 56% | 1008.9 hPa | 0 mm | - | - | - |
| 1777984499 | 8.89° C | 58% | 1008.8 hPa | 0 mm | - | - | - |
| 1777983899 | 8.89° C | 58% | 1008.8 hPa | 0 mm | - | - | - |
| 1777981799 | 8.89° C | 57% | 1009 hPa | 0 mm | - | - | - |
| 1777981199 | 8.89° C | 58% | 1008.4 hPa | 0 mm | - | - | - |
| 1777979099 | 8.89° C | 59% | 1007.1 hPa | 0 mm | - | - | - |
| 1777978801 | 8.89° C | 58% | 1006.6 hPa | 0 mm | - | - | - |
| 1777975800 | 9.44° C | 59% | 1007.1 hPa | 0 mm | - | - | - |
| 1777973099 | 10.56° C | 57% | 1006.2 hPa | 0 mm | - | - | - |
| 1777971603 | 10.56° C | 55% | 1005.7 hPa | 0 mm | - | - | - |
| 1777969199 | 11.67° C | 54% | 1005.1 hPa | 0 mm | - | - | - |
| 1777968899 | 11.67° C | 54% | 1004.7 hPa | 0 mm | - | - | - |
| 1777967699 | 12.22° C | 53% | 1004.3 hPa | 0 mm | - | - | - |
| 1777965299 | 13.33° C | 51% | 1003.4 hPa | 0 mm | - | - | - |
| 1777964699 | 13.33° C | 49% | 1003.2 hPa | 0 mm | - | - | - |
| 1777964402 | 13.33° C | 49% | 1003.3 hPa | 0 mm | - | - | - |
| 1777962901 | 13.89° C | 48% | 1002.9 hPa | 0 mm | - | - | - |
| 1777961098 | 14.44° C | 46% | 1002.8 hPa | 0 mm | - | - | - |
| 1777956300 | 15.56° C | 42% | 1001.8 hPa | 0 mm | - | - | - |
| 1777953000 | 17.22° C | 45% | 1001.6 hPa | 0 mm | - | - | - |
| 1777952401 | 17.78° C | 46% | 1001.3 hPa | 0 mm | - | - | - |
* Rain latest hour (hover to see other rain measurements)
** Current wind speed in m/s (hover to see current wind gust speed)